1st Responders/1st Detectors/Storm Spotters Weather Summary for Fleming County, KY

Forecast Maps


Reg. NEXRAD Animation


National Fire Danger: Day 1 & 2 Map

Current NWS Watch/Warnings

SPC Convective Day 1 Outlook


Day 2 Outlook

(Click images to enlarge|Page will refresh every 5 minutes)
UK Ag. Weather Center Desktop Severe Weather Service[HERE]
Fleming County, KY Hazardous Weather Outlook Webcast
(9 AM to 9 PM Mon-Fri)
[Fast]
[Dial-up]


UKAWC 1st Detectors/1st Responders Precision Weather Forecast For FLEMING County, Kentucky
(based on the NWS County Digital Forecast)

ISSUED AT 06:00 UTC ON SUNDAY FEB 18 2018
DAY SUNDAY
EDT 3HR 3A 4A 5A 6A 7A 8A 9A 10A 11A NOON 1P 2P 3P 4P 5P 6P 7P
MAX/MIN -- -- -- -- -- 31° -- -- -- -- -- -- -- -- -- -- 50°
TEMP 34° 34° 34° 34° 32° 32° 32° 34° 38° 40° 43° 47° 49° 50° 50° 49° 47°
SKY COVER 73% 64% 56% 49% 41% 33% 35% 37% 39% 34% 30% 25% 22% 19% 17% 19% 22%
Clouds
DEW PT 34° 32° 31° 31° 31° 29° 29° 29° 29° 31° 31° 31° 31° 31° 31° 31° 31°
RH 95% 92% 92% 88% 91% 84% 85% 78% 72% 70% 65% 55% 52% 48% 48% 50% 53%
POP 12HR -- -- -- -- -- 26% -- -- -- -- -- -- -- -- -- -- --
RAIN/SNOW (liq.equ) -- -- -- -- -- 0.00in -- -- -- -- -- 0.00in -- -- -- -- --
SNOWFALL -- -- -- -- -- 0in -- -- -- -- -- 0in -- -- -- -- --
WIND SPEED(MPH) 8 7 7 6 5 5 2 2 2 5 6 7 7 7 7 7 7
WIND Gust(MPH) 13 9 8 7 7 7 6 5 6 7 8 9 9 9 9 9 8
WIND DIR W W W W W NW NW W S SE SE SE SE SE SE SE SE
DEW Patchy Frost Frost Frost Frost Frost Frost Frost Frost Frost Frost -- -- -- -- -- -- --
HeatIndex 27 28 27 28 28 28 29 32 35 36 39 47 49 50 50 49 47
Rain Showers -- -- -- -- -- -- -- -- -- -- -- -- -- -- -- -- --
Thunder Storm -- -- -- -- -- -- -- -- -- -- -- -- -- -- -- -- --
Fog Patchy Patchy Patchy Patchy Patchy Patchy Patchy -- -- -- -- -- -- -- -- -- --
WIND CHILL 27° 28° 28° 29° 28° 28° -- -- -- 37° 39° -- -- -- -- -- --
SPRAY COND
DRY COND
LIVESTOCK COLDSTRESS



DAY MONDAY TUESDAY WEDNESDAY THURSDAY FRIDAY SATURDAY
EDT 6HR 8P 9P 10P 11P MIDN 1A 2A 3A 4A 5A 6A 7A 8A 9A 10A 11A NOON 1P 2P 5P 8P 11P 2A 5A 8A 11A 2P 5P 8P 2A 8A 2P 8P 2A 8A 2P 8P 2A 8A 2P 8P 2A 8A 2P 8P
MAX/MIN -- -- -- -- -- -- -- -- -- -- -- -- 40° -- -- -- -- -- -- 70° -- -- -- -- 58° -- -- 77° -- -- 59° 65° -- -- 43° 52° -- -- 40° 61° -- -- 49° 63° --
TEMP 45° 43° 40° 40° 41° 43° 45° 47° 49° 49° 52° 54° 56° 56° 58° 59° 63° 65° 67° 70° 63° 61° 58° 58° 61° 67° 76° 76° 70° 63° 65° 61° 54° 47° 43° 52° 47° 41° 43° 58° 59° 56° 49° 61° 58°
SKY COVER 25% 31% 37% 43% 57% 72% 86% 87% 89% 90% 91% 91% 92% 93% 93% 93% 94% 96% 97% 87% 78% 60% 73% 75% 86% 75% 62% 52% 64% 75% 86% 94% 94% 97% 94% 87% 77% 71% 79% 89% 84% 88% 93% 90% 90%
Clouds
DEW PT 31° 31° 31° 32° 34° 36° 38° 40° 43° 45° 47° 49° 49° 50° 52° 54° 56° 56° 58° 58° 58° 56° 54° 56° 58° 61° 59° 59° 58° 56° 56° 54° 47° 43° 40° 43° 38° 38° 40° 50° 52° 52° 49° 52° 50°
RH 60% 65% 69% 73% 72% 73% 73% 76% 79% 83% 83% 83% 79% 80% 80% 80% 78% 72% 72% 65% 80% 83% 87% 89% 86% 78% 58% 55% 63% 74% 69% 75% 76% 86% 89% 71% 70% 85% 88% 77% 78% 89% 100% 69% 77%
POP 12HR 2% -- -- -- -- -- -- -- -- -- -- -- 65% -- -- -- -- -- -- -- 70% -- -- -- 3% -- -- -- 2% -- 29% -- 81% -- 80% -- 47% -- 10% -- 49% -- 53% -- 71%
RAIN/SNOW (liq.equ) 0.00in -- -- -- -- -- 0.00in -- -- -- -- -- 0.04in -- -- -- -- -- 0.10in -- 0.00in -- 0.00in -- 0.00in -- 0.00in -- 0.00in -- -- -- -- -- -- -- -- -- -- -- -- -- -- -- --
SNOWFALL 0in -- -- -- -- -- 0in -- -- -- -- -- 0in -- -- -- -- -- 0in -- 0in -- 0in -- 0in -- 0in -- 0in -- -- -- -- -- -- -- -- -- -- -- -- -- -- -- --
WIND SPEED(MPH) 7 7 7 7 7 8 8 8 9 9 9 9 9 10 13 14 15 15 16 15 10 14 13 13 13 15 16 15 13 15 10 8 8 7 7 8 7 6 7 7 7 10 14 13 9
WIND DIR SE SE SE SE SE S S S S S S S S S S S S S S S S S S S S S SW S S S SW NW N NE NE NE NE E E S S SW SW SW SW
HeatIndex 41 38 35 35 36 38 45 47 49 49 52 54 56 56 58 59 63 65 67 70 63 61 58 58 61 67 76 76 70 63 65 61 54 47 38 52 47 38 38 58 59 56 49 61 58
Rain Showers -- -- -- -- -- -- -- Chance Chance Chance Likely Likely Likely Likely Chance Chance Chance Slight Chance Slight Chance -- -- -- -- -- -- -- -- -- -- -- Chance Likely Definite Likely Chance -- -- -- Slight Chance Chance Chance Chance Likely Likely --
Thunder Storm -- -- -- -- -- -- -- -- -- -- -- -- -- -- -- -- -- -- -- -- -- -- -- -- -- -- -- -- -- -- Slight Chance Slight Chance -- -- -- -- -- -- -- -- -- -- -- -- --
Fog -- -- -- -- -- -- -- -- -- -- -- -- -- -- -- -- -- -- -- -- -- -- -- -- -- -- -- -- -- -- -- -- -- -- -- -- -- -- -- -- -- -- -- -- --
WIND CHILL 41° 39° 35° 35° 36° 38° 41° -- -- -- -- -- -- -- -- -- -- -- -- -- -- -- -- -- -- -- -- -- -- -- -- -- -- -- 39° -- -- 37° 39° -- -- -- -- -- --
SPRAY COND
DRY COND
LIVESTOCK COLDSTRESS

Click on individual weather variable above in left-hand column (ie., TEMP, RH, QPF 12HR) to view state forecast maps






NWS 48 Hr. Forecast Maps,

Regional Hourly Observations For FLEMING County, Kentucky
Issued at 100 AM EST SUN FEB 18 2018
NORTHEAST KENTUCKY
  
CITY           SKY/WX    TMP DP  RH WIND       PRES   REMARKS
LEXINGTON      MOCLDY    38  33  82 W9        30.23R WCI  31          
COVINGTON      CLOUDY    36  34  92 W13       30.20R WCI  27          
FRANKFORT      FAIR      38  32  79 W5        30.21R WCI  34          


Current NOWCAST not available:
Nowcasts are not issued routinely during fair weather. Only when
precipitation or other significant weather is occuring in this county will these
forecasts be issued. Currently, there is no short term forecast in effect.


Fire Weather Forecast For FLEMING County, KY
Provided by the National Weather Service:

Issued at: Sun Feb 18 01:05:01 EST 2018

Clay City, Stanton, Frenchburg, Brodhead, Mount Vernon, McKee, 
Annville, Burnside, Somerset, Monticello, Sandy Hook, 
West Liberty, Paintsville, Campton, Salyersville, Beattyville, 
Jackson, and Booneville
422 PM EST Sat Feb 17 2018

.TONIGHT...
Sky/weather.........Mostly cloudy. A chance of rain showers in 
                    the evening. Patchy fog. 
Min Temperature.....Around 33. 
   24 hr trend......1 degree warmer. 
Max Humidity........99 percent. 
   24 hr trend......3 percent wetter. 
Wind (20 ft)........Northwest winds 5 to 10 mph. 
LAL.................1. 
Haines Index........3 or very low potential for large plume 
                    dominated fire growth. 
ADI.................24. 
LVORI...............6. 
Prob of precip......50 percent. 
QPF (inches)........0.08 inches. 

.SUNDAY...
Sky/weather.........Mostly sunny. 
Max Temperature.....52-57. 
   24 hr trend......12 degrees warmer. 
Min Humidity........39-47 percent. 
   24 hr trend......42 percent drier. 
Wind (20 ft)........North winds around 5 mph shifting to the 
                    southeast in the afternoon. 
LAL.................1. 
Haines Index........4 or low potential for large plume dominated 
                    fire growth. 
Mixing Height.......2400 ft agl. 
Transport Winds.....North around 5 mph shifting to the southeast in 
                    the afternoon. 
Dispersion Index....20. 
Vent Rate...........Poor (20000 knot-ft). 
ADI.................26. 
LVORI...............4. 
Prob of precip......0 percent. 
QPF (inches)........None. 

.SUNDAY NIGHT...
Sky/weather.........Partly cloudy then becoming cloudy. A slight 
                    chance of rain showers in the evening, then a 
                    chance of rain showers. 
Min Temperature.....43-48. 
   24 hr trend......10 degrees warmer. 
Max Humidity........81-91 percent. 
   24 hr trend......16 percent drier. 
Wind (20 ft)........South winds 5 to 10 mph. 
LAL.................1. 
Haines Index........4 or low potential for large plume dominated 
                    fire growth. 
ADI.................10. 
LVORI...............4. 
Prob of precip......50 percent. 
QPF (inches)........0.06 inches. 

.WASHINGTONS BIRTHDAY...
Sky/weather.........Mostly cloudy. A chance of rain showers in the 
                    morning. 
Max Temperature.....Around 72. 
   24 hr trend......19 degrees warmer. 
Min Humidity........54-62 percent. 
   24 hr trend......16 percent wetter. 
Wind (20 ft)........South winds 5 to 15 mph. 
LAL.................1. 
Haines Index........3 or very low potential for large plume 
                    dominated fire growth. 
Mixing Height.......3200 ft agl. 
Transport Winds.....South 10 to 20 mph shifting to the southwest 
                    around 25 mph early in the afternoon. 
Dispersion Index....71. 
Vent Rate...........Good (71100 knot-ft). 
ADI.................23 increasing to 63 in the afternoon. 
LVORI...............4. 
Prob of precip......50 percent. 
QPF (inches)........0.01 - 0.12 inches. 

SPC's Fire Weather Web Tool (Excellent!), SPC's Fire Weather Outlooks, NWS Fire Weather WEB, Fire Danger Class Map,
Keetch-Byram Drought Index, ROMAN Web, Haines Index ,
WFAS's 10-hr Dead Fuel Moist., WFAS's 100-hr Dead Fuel Moist., Probablity of Ignition, Visual blackness Map, Palmer Drought Index, HPC's Rainfall Forecast Maps


Hazardous Weather Outlook For FLEMING County, Kentucky
733 PM EST Sat Feb 17 2018

 DAY ONE  Tonight.

Significant rises along portions of the Kentucky, Red, and 
Cumberland River basins are expected tonight.

 DAYS TWO THROUGH SEVEN  Sunday through Friday.

High water is expected along portions of the Kentucky, Red, and 
Cumberland River basins Sunday into Monday. 

Thunderstorms are possible Wednesday into Wednesday evening. 

 SPOTTER INFORMATION STATEMENT  

Spotter activation is not anticipated at this time.

Latest FLEMING County, Kentucky Watches, Warnings and Advisories.
Additional Drought Info.: UKAWC Drought Page, Kentucky Drought Watch


7-Day Forecast For FLEMING County, KY

TONIGHT
Mostly cloudy. Areas of drizzle in the evening. Patchy fog through the night. Lows in the lower 30s. West winds around 10 mph.

SUNDAY
Mostly sunny. Patchy fog early. Highs in the lower 50s. Light winds.

SUNDAY NIGHT
Partly cloudy in the evening, then cloudy with a chance of showers late. Cloudy with showers likely near dawn. Lows in the lower 40s. South winds around 10 mph. Chance of rain 70 percent.

WASHINGTONS BIRTHDAY
Warmer, cloudy. Showers likely in the morning, then a slight chance of showers in the afternoon. Highs in the lower 70s. South winds 10 to 15 mph with gusts to around 25 mph. Chance of rain 70 percent.

MONDAY NIGHT
Mostly cloudy. Lows in the upper 50s. South winds around 10 mph.

TUESDAY
Partly sunny. Highs in the upper 70s.

TUESDAY NIGHT
Mostly cloudy with a 30 percent chance of showers. Lows around 60.

WEDNESDAY
Showers and a chance of thunderstorms. Highs in the upper 60s. Chance of rain 80 percent.

WEDNESDAY NIGHT
Showers. Lows in the lower 40s. Chance of rain 80 percent.

THURSDAY
Cloudy with a 50 percent chance of showers. Highs in the lower 50s.

THURSDAY NIGHT
Mostly cloudy. Lows in the lower 40s.

FRIDAY
Mostly cloudy with a 50 percent chance of showers. Highs in the lower 60s.

FRIDAY NIGHT
Cloudy with a 50 percent chance of showers. Lows around 50.

SATURDAY
Cloudy with showers likely. Highs in the mid 60s. Chance of rain 70 percent.

Ag Weather Center, Department of Biosystems & Agricultural Engineering, University of Kentucky